This is the latest recevied weather packets stored in our database for station/object IZ3ZOD-13. If no packets are shown the sender has not sent any weather packets the latest 10 day(s).
| Time | Temp. | Humidity | Pressure | Rain* | Wind** | Luminosity | Snow |
|---|---|---|---|---|---|---|---|
| 1777660217 | 16.67° C | 38% | 1024.8 hPa | 0 mm | - | - | - |
| 1777658403 | 18.33° C | 36% | 1025 hPa | 0 mm | - | - | - |
| 1777657203 | 19.44° C | 33% | 1024.8 hPa | 0 mm | - | - | - |
| 1777654083 | 20° C | 28% | 1024.9 hPa | 0 mm | - | - | - |
| 1777653603 | 20° C | 27% | 1025 hPa | 0 mm | - | - | - |
| 1777653363 | 20.56° C | 27% | 1025.1 hPa | 0 mm | - | - | - |
| 1777648323 | 20.56° C | 27% | 1025.7 hPa | 0 mm | - | - | - |
| 1777646884 | 20.56° C | 27% | 1025.9 hPa | 0 mm | - | - | - |
| 1777645684 | 20.56° C | 28% | 1026.1 hPa | 0 mm | - | - | - |
| 1777643413 | 20.56° C | 25% | 1026.3 hPa | 0 mm | - | - | - |
| 1777641604 | 20.56° C | 26% | 1026.8 hPa | 0 mm | - | - | - |
| 1777640403 | 20.56° C | 27% | 1026.9 hPa | 0 mm | - | - | - |
| 1777639443 | 20° C | 30% | 1027.2 hPa | 0 mm | - | - | - |
| 1777637044 | 18.89° C | 29% | 1027.3 hPa | 0 mm | - | - | - |
| 1777634403 | 18.33° C | 30% | 1028.1 hPa | 0 mm | - | - | - |
| 1777633204 | 18.33° C | 29% | 1028.2 hPa | 0 mm | - | - | - |
| 1777632484 | 18.33° C | 30% | 1028.3 hPa | 0 mm | - | - | - |
| 1777632244 | 17.78° C | 30% | 1028.5 hPa | 0 mm | - | - | - |
| 1777630563 | 17.22° C | 30% | 1028.4 hPa | 0 mm | - | - | - |
| 1777628884 | 17.78° C | 32% | 1028.7 hPa | 0 mm | - | - | - |
| 1777628644 | 17.22° C | 34% | 1028.7 hPa | 0 mm | - | - | - |
| 1777626483 | 17.78° C | 33% | 1028.8 hPa | 0 mm | - | - | - |
| 1777626243 | 16.67° C | 34% | 1028.8 hPa | 0 mm | - | - | - |
| 1777626003 | 16.67° C | 33% | 1028.9 hPa | 0 mm | - | - | - |
| 1777625417 | 16.67° C | 33% | 1028.6 hPa | 0 mm | - | - | - |
* Rain latest hour (hover to see other rain measurements)
** Current wind speed in m/s (hover to see current wind gust speed)